Flag for Switzerland Weather past 2 weeks in Arth, Schwyz, Switzerland

Now
49 °F

Cool.


Feels Like: 49 °F
Forecast: 28 / 48 °F
Wind: 2 mph from Southeast

Location: Altdorf

Current Time: Apr 18, 2015 at 5:12:51 PM

Latest Report: Apr 18, 2015 at 4:00 PM


Visibility: N/A

Pressure: 30.15 "Hg

Humidity: 74%

Dew point: 41 °F

Location of ArthLocation

Historic Weather in Arth — Graph

°F

Arth temperature yesterday

Maximum temperature yesterday: 56 °F (at 3:00 AM)
Minimum temperature yesterday: 51 °F (at 7:00 AM)
Average temperature yesterday: 54 °F

Past Weeks' High & Low Weather Summary

 TemperatureHumidityPressure
High70 °F (Apr 15, 5:00 PM)95% (Apr 4, 1:00 AM)30.59 "Hg (Apr 4, 1:00 AM)
Low27 °F (Apr 6, 4:00 AM)27% (Apr 10, 6:00 PM)29.85 "Hg (Apr 4, 6:00 PM)
Average49 °F65%30.24 "Hg
* Reported Apr 3 3:00 PM — Apr 18 3:00 PM, Arth, Weather by CustomWeather, © 2015

Note: Actual official high and low records may vary slightly from our data, if they occured in-between our weather recording intervals... More about our weather records

Advertising

Arth weather history for previous 24 hours

 ConditionsComfort  
Time TempWeatherWind HumidityBarometerVisibility
3:00 PM
Sat, Apr 18
48 °FCool.3 mph75%30.16 "HgN/A
2:00 PM48 °FCool.9 mph76%30.17 "HgN/A
1:00 PM47 °FCool.12 mph79%30.17 "HgN/A
12:00 PM47 °FCool.14 mph82%30.16 "HgN/A
11:00 AM47 °FLight rain. Overcast.9 mph83%30.14 "Hg4 mi
10:00 AM47 °FCool.6 mph82%30.11 "HgN/A
9:00 AM46 °FCool.12 mph86%30.10 "HgN/A
8:00 AM47 °FLight rain. Overcast.10 mph85%30.09 "Hg3 mi
7:00 AM48 °FCool.6 mph90%30.08 "HgN/A
6:00 AM48 °FCool.1 mph94%30.07 "HgN/A
5:00 AM48 °FRain. Overcast.1 mph94%30.06 "Hg4 mi
4:00 AM48 °FCool.1 mph94%30.07 "HgN/A
3:00 AM48 °FCool.1 mph92%30.06 "HgN/A
2:00 AM48 °FHeavy rain. Overcast.5 mph88%30.06 "Hg4 mi
1:00 AM50 °FCool.8 mph87%30.05 "HgN/A
12:00 AM52 °FCool.21 mph81%30.01 "HgN/A
11:00 PM
Fri, Apr 17
53 °FDrizzle. Overcast.1 mph94%29.98 "Hg6 mi
10:00 PM53 °FCool.1 mph94%29.98 "HgN/A
9:00 PM53 °FCool.1 mph93%29.98 "HgN/A
8:00 PM54 °FOvercast.2 mph91%29.96 "Hg9 mi
7:00 PM54 °FCool.1 mph90%29.95 "HgN/A
6:00 PM56 °FCool.1 mph79%29.94 "HgN/A
5:00 PM55 °FLow clouds.1 mph84%29.95 "Hg9 mi
Weather by CustomWeather, © 2015

See weather overviewHow to use our weather pages